Location: Ottawa
(45.4167°N, 75.7000°W)
Time: 14:39:47
(UTC-04:00)

Vanguard 1 - Visible Passes

Search period start: 18 October 2017 00:00
Search period end: 28 October 2017 00:00
Orbit: 650 x 3834 km, 34.3° (Epoch: 18 October)

Date Brightness Start Highest point End Pass type
(mag) Time Alt. Az. Time Alt. Az. Time Alt. Az.
18 Oct 13.6 00:50:49 23° ESE 00:50:49 23° ESE 00:58:51 10° E visible
18 Oct 12.6 03:03:32 57° S 03:04:06 57° SSE 03:26:35 10° E visible
18 Oct 13.0 05:16:14 29° WSW 05:29:25 59° S 05:51:29 10° ESE visible
19 Oct 13.4 01:10:35 29° ESE 01:10:35 29° ESE 01:20:46 10° E visible
19 Oct 12.5 03:23:18 58° S 03:25:15 59° S 03:48:00 10° E visible
19 Oct 13.1 05:36:01 24° W 05:50:40 56° SSW 06:12:20 10° SE visible
20 Oct 13.2 01:30:23 34° ESE 01:30:23 34° ESE 01:42:32 10° E visible
20 Oct 12.5 03:43:05 56° SSW 03:46:29 60° S 04:09:22 10° ESE visible
20 Oct 13.2 05:55:48 19° W 06:11:50 51° SSW 06:32:59 10° SE visible
21 Oct 13.0 01:50:11 40° ESE 01:50:11 40° ESE 02:04:11 10° E visible
21 Oct 12.5 04:02:54 52° SW 04:07:46 60° S 04:30:35 10° ESE visible
21 Oct 13.3 06:15:37 15° W 06:32:52 46° SSW 06:53:22 10° SE visible
21 Oct 14.0 23:57:19 10° E 23:57:19 10° E 23:57:34 10° E visible
22 Oct 12.9 02:10:02 46° SE 02:10:02 46° SE 02:25:45 10° E visible
22 Oct 12.6 04:22:45 46° SW 04:29:02 58° S 04:51:41 10° ESE visible
22 Oct 13.4 06:35:28 11° W 06:53:49 40° SSW 07:13:25 10° SSE visible
23 Oct 13.8 00:17:12 14° E 00:17:12 14° E 00:19:32 10° E visible
23 Oct 12.7 02:29:55 51° SE 02:29:55 51° SE 02:47:15 10° E visible
23 Oct 12.7 04:42:38 40° WSW 04:50:16 54° SSW 05:12:35 10° SE visible
23 Oct 13.5 06:56:52 10° W 07:14:38 34° SW 07:33:05 10° SSE visible
24 Oct 13.7 00:37:06 18° E 00:37:06 18° E 00:41:18 10° E visible
24 Oct 12.6 02:49:50 54° SSE 02:49:50 54° SSE 03:08:39 10° ESE visible
24 Oct 12.8 05:02:33 35° WSW 05:11:27 50° SSW 05:33:15 10° SE visible
25 Oct 13.6 00:57:03 22° E 00:57:03 22° E 01:02:58 10° E visible
25 Oct 12.6 03:09:47 56° SSE 03:09:47 56° SSE 03:29:57 10° ESE visible
25 Oct 12.9 05:22:30 29° WSW 05:32:33 44° SSW 05:53:38 10° SE visible
26 Oct 13.4 01:17:02 26° ESE 01:17:02 26° ESE 01:24:34 10° E visible
26 Oct 12.5 03:29:46 55° S 03:29:46 55° S 03:51:05 10° ESE visible
26 Oct 13.1 05:42:30 24° WSW 05:53:34 39° SSW 06:13:40 10° SSE visible
27 Oct 13.3 01:37:04 29° ESE 01:37:04 29° ESE 01:46:04 10° ESE visible
27 Oct 12.5 03:49:48 52° SSW 03:50:23 52° SSW 04:12:02 10° SE visible
27 Oct 13.2 06:02:32 18° W 06:14:30 32° SW 06:33:15 10° SSE visible
